Regional Weather Roundup
Issued by NWS Upton, NY

Current Version | Previous Version | Text Only | Print | Product List | Glossary On
Versions: 1 2 3 4 5 6 7 8 9 10 11 12 13 14 15 16 17 18 19 20 21 22 23 24 25 26 27 28 29 30 31 32 33 34 35 36 37 38 39 40 41 42 43 44 45 46 47 48 49 50
000
ASUS41 KOKX 070108
RWROKX

REGIONAL WEATHER ROUNDUP
NATIONAL WEATHER SERVICE NEW YORK NY
900 PM EDT WED MAY 06 2015

NOTE: "FAIR" INDICATES FEW OR NO CLOUDS BELOW 12,000 FEET WITH NO
SIGNIFICANT WEATHER AND/OR OBSTRUCTIONS TO VISIBILITY.

NYZ071-072-176-178-NJZ106-104-070200-
NEW YORK CITY METRO AREA


CITY           SKY/WX    TMP DP  RH WIND       PRES   REMARKS
CENTRAL PARK   CLEAR     62  42  47 CALM      30.26R
LAGUARDIA APRT PTCLDY    63  38  39 SE7       30.23R
KENNEDY INTL   PTCLDY    59  46  62 E5        30.24S
NEWARK/LIBERTY PTCLDY    59  46  62 S3        30.23S
BRNX BOT. GARD   N/A     57  45  62 NE2       30.24R
TETERBORO      CLEAR     60  43  53 SW7       30.22S
$$

NYZ177-179-078>081-070200-
LONG ISLAND NEW YORK

CITY           SKY/WX    TMP DP  RH WIND       PRES   REMARKS
FARMINGDALE    CLEAR     58  43  57 CALM      30.24R
ISLIP          PTCLDY    57  41  55 CALM      30.22R
SHIRLEY        CLEAR     54  39  57 CALM      30.24S
WESTHAMPTON    CLEAR     48  36  63 CALM      30.25R
MONTAUK POINT    N/A     51  39  63 CALM      30.25R
$$

NYZ052-065-067-070200-
HUDSON VALLEY

CITY           SKY/WX    TMP DP  RH WIND       PRES   REMARKS
WHITE PLAINS   CLEAR     57  43  59 SE3       30.23R
NEWBURGH       CLEAR     63  46  55 CALM      30.23R
MONTGOMERY     CLEAR     57  46  66 CALM      30.22R
POUGHKEEPSIE   CLEAR     61  42  49 CALM      30.21R
ALBANY         PTCLDY    68  35  29 S8        30.18R
$$

NJZ001-105-106-008-010-013-015-019>022-104-070200-
NEW JERSEY

CITY           SKY/WX    TMP DP  RH WIND       PRES   REMARKS
NEWARK/LIBERTY PTCLDY    59  46  62 S3        30.23S
TETERBORO      CLEAR     60  43  53 SW7       30.22S
CALDWELL       CLEAR     61  46  57 CALM      30.24R
MORRISTOWN     CLEAR     61  46  59 SW5       30.24R
SOMERVILLE     CLEAR     58  46  64 CALM      30.22R
SUSSEX         CLEAR     57  48  72 CALM      30.24R
ANDOVER          N/A     57  50  77 CALM      30.23S
TRENTON        CLEAR     60  47  61 CALM      30.23R
MILLVILLE      CLOUDY    66  51  58 NE5       30.21R
ATLANTIC CITY  CLOUDY    60  52  74 E7        30.21R
WRIGHTSTOWN    PTCLDY    58  50  77 E3        30.21R
TOMS RIVER     PTCLDY    55  48  76 CALM      30.23S
BELMAR         CLEAR     55  45  67 CALM      30.24R
$$

PAZ047>061-062-071-070200-
EASTERN PENNSYLVANIA

CITY           SKY/WX    TMP DP  RH WIND       PRES   REMARKS
PHILADELPHIA   MOCLDY    65  50  58 E8        30.23R
ALLENTOWN      CLOUDY    63  48  58 CALM      30.23R
SCRANTON       CLOUDY    64  49  57 CALM      30.22S
$$

CTZ002-004>006-009-010-012-RIZ004-006-007-MAZ004-011-015-070200-
SOUTHERN NEW ENGLAND
 IN CT

CITY           SKY/WX    TMP DP  RH WIND       PRES   REMARKS
BRADLEY INTL   CLEAR     64  32  30 S12       30.21R
HARTFORD       CLEAR     61  30  31 S7        30.23R
DANBURY        CLEAR     55  41  59 CALM      30.25R
WTRBRY/OXFORD  CLEAR     55  30  38 S5        30.26R
BRIDGEPORT     CLEAR     56  42  59 E3        30.24R
MERIDEN        CLEAR     55  33  43 CALM      30.23R
NEW HAVEN      CLEAR     53  37  54 E3        30.24R
CHESTER        FAIR      57  30  35 S3        30.25R
GROTON         PTCLDY    51  37  58 CALM      30.23S
WILLIMANTIC    CLEAR     60  29  30 S5        30.23R

 IN RI

CITY           SKY/WX    TMP DP  RH WIND       PRES   REMARKS
PROVIDENCE     PTCLDY    56  36  47 SW6       30.22S
BLOCK ISLAND   PTCLDY    54  36  50 S7        30.23S
WESTERLY       CLEAR     53  34  48 CALM      30.24R

 IN MA

CITY           SKY/WX    TMP DP  RH WIND       PRES   REMARKS
BOSTON         PTCLDY    63  31  30 SW16      30.19R
WORCESTER      CLEAR     63  33  32 SW13      30.21R
WESTFIELD      CLEAR     65  36  34 S10       30.20R
PROVINCETOWN   CLEAR     54  37  54 S13       30.20S
NANTUCKET      CLEAR     48  40  73 S3        30.22S
$$

ANZ330-335-338-340-345-350-353-355-070200-
COASTAL MARINE OBSERVATIONS


STATION/POSITION TIME  SKY/WX   TEMP    WIND        PRES    VSBY  WAVE
                                AIR SEA DIR/SP/G                  HT/PER
                 (UTC)          (F)     (DEG/KT/KT) (MB)    (MI)  (FT/S)
NY HARB ENTRANCE 0050            53 53   30/  4/  6 1023.4          2/ 5
4S FIRE IS       0003               51                N/A           2/ 6
20S FIRE ISLAND  0050            50 49   40/  6/  6 1023.4          2/ 5
GREAT SOUTH BAY  0000            59 61   90/  6/  8   N/A
23SW MTP         0050            49 48   40/  4/  4 1023.6          3/ 7
HUDSON CANYON    NOT AVBL
KINGS POINT      0000            55 51  200/  1/  1 1023.1
EASTERN LI SOUND 0000            52     350/  2/  4   N/A
ROBBINS REEF     0000            59     170/ 12/ 13 1022.6
$$


>>>>>>>>>>>>>>>>>>>>>>>>>>>> KEY <<<<<<<<<<<<<<<<<<<<<<<<<<<
>                                                          <
>     SKY/WX - SKY CONDITION/PRESENT WEATHER               <
>     TMP    - TEMPERATURE IN FAHRENHEIT                   <
>     DP     - DEWPOINT IN FAHRENHEIT                      <
>     RH     - RELATIVE HUMIDITY IN PERCENT                <
>     WIND   - DIRECTION AND SPEED IN MPH                  <
>     PRES   - MEAN SEA LEVEL PRESSURE IN INCHES OF HG     <
>     WCI    - WIND CHILL INDEX                            <
>     VSB    - VISIBILITY IN MILES                         <
>     HX     - HEAT INDEX                                  <
>     TC     - TEMPERATURE IN CELSIUS                      <
>     VRB    - VARIABLE WIND DIRECTION                     <
>                                                          <
>>>>>>>>>>>>>>>>>>>>>>>>>>>> KEY <<<<<<<<<<<<<<<<<<<<<<<<<<<





USA.gov is the U.S. government's official web portal to all federal, state and local government web resources and services.